Regional Weather Roundup
Issued by NWS

Home | Current Version | Previous Version | Text Only | Print | Product List | Glossary Off
Versions: 1 2 3 4 5 6 7 8 9 10 11 12 13 14 15 16 17 18 19 20 21 22 23 24 25 26 27 28 29 30 31 32 33 34 35 36 37 38 39 40 41 42 43 44 45 46 47 48 49 50

000
ASUS43 KLMK 260802
RWRKY
KENTUCKY REGIONAL WEATHER ROUNDUP
NATIONAL WEATHER SERVICE LOUISVILLE KY
400 AM EDT THU APR 26 2018

NOTE "FAIR" INDICATES FEW OR NO CLOUDS BELOW 12,000 FEET
WITH NO SIGNIFICANT WEATHER AND/OR OBSTRUCTIONS TO VISIBILITY.

KYZ001>023-026-027-061>063-070>075-260900-
WESTERN AND SOUTH CENTRAL KENTUCKY

CITY           SKY/WX    TMP DP  RH WIND       PRES   REMARKS
PADUCAH        CLOUDY    56  54  93 NE6       29.86F FOG
HENDERSON      FAIR      57  45  64 NE7       29.90S
OWENSBORO      FAIR      57  44  62 NE10      29.89S
HOPKINSVILLE   FAIR      57  55  93 NW3       29.86F
BOWLING GREEN  FAIR      54  52  93 CALM      29.86F
GLASGOW        NOT AVBL
$$

KYZ024-025-028>034-038-045-046-053-260900-
NORTH CENTRAL KENTUCKY

CITY           SKY/WX    TMP DP  RH WIND       PRES   REMARKS
LOUISVILLE/SDF CLOUDY    53  37  54 N8        29.90F
LOUISVILLE/LOU FAIR      52  38  58 N5        29.91S
FORT KNOX      CLOUDY    53  38  57 N9        29.90S
$$

KYZ035>037-039>044-047>052-055>060-089>105-260900-
NORTHEAST KENTUCKY

CITY           SKY/WX    TMP DP  RH WIND       PRES   REMARKS
LEXINGTON      FAIR      50  42  74 NE6       29.89F
COVINGTON      CLOUDY    47  33  58 N6        29.89F
FRANKFORT      FAIR      51  43  74 N3        29.89S
$$

KYZ054-064>069-076>088-106>120-260900-
SOUTHEAST KENTUCKY

CITY           SKY/WX    TMP DP  RH WIND       PRES   REMARKS
JACKSON        MOCLDY    50  49  96 SW3       29.90S FOG
LONDON         FOG       47  46  97 CALM      29.90S VSB 1/2
SOMERSET       NOT AVBL
MIDDLESBORO    CLOUDY    49  49 100 CALM      29.92S FOG
MONTICELLO     NOT AVBL
$$




USA.gov is the U.S. government's official web portal to all federal, state and local government web resources and services.